Total_Precipitation_Accumulation
1.51 1.95 2.42 2.93 3.57 4.42 5.30 5.57 5.22 4.64 4.11 3.60 2.99 2.50 2.18 1.97 1.91 1.64 1.33 1.23 1.21 1.19 1.27 1.05 1.12 1.23 1.25 1.24 1.28 1.30 1.22 1.04 1.19 1.32 1.14 0.93 0.83 0.84 0.75 0.71 0.72 0.64 0.71
1.57 2.06 2.62 3.04 3.38 3.89 4.61 4.77 4.32 3.68 3.05 2.63 2.36 2.14 1.97 1.65 1.46 1.41 1.25 1.04 1.05 1.07 1.09 1.08 0.89 0.91 0.99 0.91 0.93 1.11 1.15 0.98 1.06 1.20 1.19 0.98 0.97 0.84 0.53 0.56 0.60 0.58 0.70
1.40 2.11 2.61 2.89 3.17 3.35 3.32 3.34 3.10 2.58 2.24 2.06 1.93 1.83 1.81 1.57 1.29 1.16 1.00 0.85 0.82 0.83 0.86 0.84 0.82 0.87 0.87 0.88 0.88 0.92 0.98 0.92 0.86 0.96 1.14 1.01 0.83 0.71 0.59 0.52 0.50 0.60 0.77
1.23 1.96 2.23 2.30 2.38 2.48 2.27 2.20 2.21 2.03 1.93 1.80 1.66 1.47 1.24 1.11 1.00 0.96 0.89 0.81 0.73 0.70 0.71 0.72 0.69 0.72 0.75 0.87 0.75 0.76 0.82 0.84 0.73 0.74 0.81 0.81 0.80 0.77 0.66 0.56 0.52 0.57 0.72
0.91 1.25 1.29 1.39 1.49 1.59 1.59 1.68 1.89 1.91 1.80 1.73 1.73 1.65 1.31 1.08 1.00 0.97 0.96 0.86 0.78 0.71 0.68 0.69 0.69 0.64 0.60 0.64 0.69 0.78 0.75 0.74 0.69 0.67 0.72 0.79 0.81 0.77 0.73 0.71 0.63 0.55 0.48
0.60 0.80 0.85 0.88 0.96 1.02 1.09 1.24 1.61 1.75 1.67 1.61 1.59 1.50 1.37 1.25 1.08 0.92 0.85 0.80 0.78 0.78 0.77 0.74 0.76 0.68 0.61 0.64 0.65 0.68 0.67 0.72 0.77 0.73 0.73 0.84 0.86 0.78 0.76 0.72 0.67 0.59 0.48
0.50 0.63 0.78 0.80 0.74 0.72 0.79 0.92 1.13 1.24 1.28 1.36 1.43 1.43 1.45 1.36 1.16 1.01 0.85 0.78 0.72 0.70 0.80 0.82 0.80 0.76 0.73 0.70 0.68 0.66 0.65 0.70 0.79 0.76 0.71 0.72 0.76 0.80 0.80 0.76 0.69 0.70 0.66
0.36 0.40 0.50 0.50 0.49 0.55 0.57 0.65 0.78 0.87 0.97 1.06 1.17 1.26 1.26 1.20 1.06 1.05 0.93 0.79 0.70 0.70 0.79 0.83 0.77 0.72 0.70 0.69 0.73 0.64 0.60 0.68 0.76 0.77 0.87 0.82 0.71 0.84 0.90 0.88 0.89 0.87 0.91
0.19 0.21 0.22 0.24 0.27 0.37 0.49 0.57 0.65 0.71 0.78 0.85 0.98 1.07 1.09 1.06 1.04 1.03 0.91 0.82 0.83 0.80 0.83 0.77 0.76 0.75 0.72 0.71 0.74 0.71 0.71 0.75 0.76 0.84 1.00 1.01 0.93 0.88 0.91 0.99 1.06 1.15 1.11
0.14 0.14 0.14 0.14 0.15 0.18 0.33 0.49 0.55 0.66 0.77 0.81 0.81 0.82 0.96 0.97 0.98 0.94 0.85 0.88 0.88 0.83 0.87 0.85 0.81 0.80 0.78 0.81 0.86 0.82 0.80 0.86 0.92 1.05 1.14 1.17 1.15 1.11 1.02 1.06 1.11 1.14 1.21
0.15 0.13 0.12 0.11 0.13 0.14 0.23 0.35 0.44 0.54 0.62 0.65 0.68 0.79 0.88 0.88 0.86 0.87 0.81 0.82 0.81 0.81 0.81 0.81 0.84 0.82 0.87 1.01 1.20 1.16 1.08 1.10 1.14 1.22 1.33 1.39 1.42 1.39 1.24 1.19 1.16 1.15 1.23
0.19 0.17 0.14 0.10 0.11 0.14 0.17 0.26 0.30 0.32 0.36 0.44 0.52 0.63 0.77 0.76 0.76 0.78 0.85 0.86 0.82 0.75 0.66 0.68 0.74 0.74 0.83 0.99 1.26 1.39 1.37 1.33 1.24 1.32 1.50 1.56 1.52 1.40 1.30 1.29 1.22 1.19 1.28
0.20 0.20 0.18 0.13 0.11 0.13 0.16 0.20 0.22 0.26 0.29 0.34 0.40 0.50 0.64 0.72 0.75 0.77 0.82 0.87 0.86 0.81 0.76 0.75 0.79 0.86 0.88 0.89 1.06 1.26 1.33 1.32 1.27 1.35 1.41 1.44 1.51 1.44 1.38 1.30 1.24 1.23 1.33
0.23 0.27 0.27 0.18 0.15 0.16 0.18 0.21 0.23 0.27 0.29 0.34 0.42 0.49 0.58 0.70 0.78 0.80 0.82 0.85 0.90 0.88 0.88 0.88 0.92 0.95 0.93 0.93 1.02 1.15 1.24 1.28 1.29 1.34 1.39 1.41 1.42 1.46 1.54 1.45 1.38 1.43 1.47
0.27 0.24 0.27 0.20 0.18 0.18 0.21 0.22 0.25 0.28 0.31 0.36 0.43 0.49 0.58 0.64 0.70 0.78 0.84 0.90 0.93 0.90 0.97 1.06 1.05 1.04 0.97 0.92 1.08 1.18 1.17 1.24 1.28 1.26 1.22 1.30 1.49 1.59 1.63 1.50 1.49 1.55 1.52
0.31 0.31 0.34 0.29 0.25 0.23 0.23 0.22 0.27 0.35 0.42 0.50 0.54 0.54 0.61 0.68 0.69 0.74 0.78 0.89 0.94 0.99 1.08 1.15 1.17 1.12 0.97 1.09 1.23 1.26 1.24 1.28 1.29 1.27 1.20 1.16 1.24 1.34 1.42 1.37 1.33 1.37 1.42
0.47 0.55 0.60 0.49 0.37 0.32 0.31 0.31 0.36 0.43 0.50 0.58 0.70 0.73 0.76 0.81 0.83 0.87 0.89 0.95 1.09 1.16 1.16 1.16 1.18 1.17 1.19 1.20 1.13 1.10 1.04 1.09 1.15 1.14 1.09 0.92 0.86 1.04 1.12 1.24 1.27 1.21 1.20
0.51 0.58 0.62 0.62 0.56 0.51 0.48 0.49 0.53 0.59 0.70 0.81 0.91 0.99 1.03 1.11 1.18 1.23 1.20 1.23 1.30 1.37 1.36 1.30 1.31 1.38 1.36 1.32 1.18 1.09 0.96 0.95 0.98 1.00 0.98 0.96 0.93 0.94 1.01 1.12 1.19 1.18 1.13
0.57 0.68 0.65 0.63 0.63 0.72 0.72 0.70 0.72 0.77 0.92 1.06 1.16 1.21 1.26 1.34 1.40 1.39 1.46 1.56 1.67 1.70 1.69 1.65 1.68 1.69 1.72 1.65 1.40 1.27 1.11 1.09 1.06 1.09 1.12 1.10 1.01 1.02 0.97 0.99 1.04 1.07 1.12
0.64 0.71 0.75 0.72 0.77 0.91 0.92 0.92 0.99 1.07 1.09 1.11 1.19 1.34 1.50 1.60 1.59 1.61 1.74 1.92 2.07 2.05 2.03 2.05 2.06 1.98 1.94 1.87 1.54 1.36 1.20 1.23 1.22 1.25 1.20 1.13 1.00 0.94 0.87 0.89 0.96 0.94 0.94
0.58 0.66 0.71 0.75 0.78 0.89 0.99 1.13 1.27 1.29 1.28 1.31 1.37 1.45 1.61 1.75 1.77 1.83 1.88 2.02 2.14 2.15 2.10 2.02 1.95 1.91 1.93 1.88 1.61 1.44 1.28 1.32 1.35 1.26 1.20 1.15 1.05 0.88 0.81 0.75 0.78 0.81 0.87
0.48 0.55 0.67 0.74 0.79 0.91 1.11 1.24 1.35 1.43 1.49 1.55 1.70 1.72 1.77 1.76 1.72 1.84 1.93 2.01 2.12 2.10 2.05 2.07 1.96 1.87 1.85 1.72 1.53 1.38 1.30 1.39 1.47 1.42 1.31 1.24 1.08 0.85 0.77 0.70 0.70 0.72 0.72
0.51 0.55 0.63 0.73 0.79 0.86 1.02 1.27 1.34 1.38 1.45 1.55 1.64 1.74 1.76 1.79 1.78 1.85 1.94 2.06 2.09 2.06 1.99 2.01 2.02 1.93 1.84 1.79 1.59 1.38 1.26 1.29 1.34 1.45 1.51 1.34 1.16 0.97 0.85 0.84 0.80 0.74 0.70
0.49 0.52 0.61 0.71 0.75 0.71 0.77 0.91 1.01 1.08 1.16 1.26 1.34 1.39 1.48 1.58 1.73 1.90 1.93 1.97 2.04 2.09 2.09 2.05 1.99 1.94 1.90 1.91 1.75 1.53 1.36 1.35 1.40 1.46 1.51 1.37 1.25 1.08 0.94 0.90 0.81 0.71 0.69
0.41 0.45 0.55 0.58 0.60 0.65 0.63 0.66 0.74 0.93 1.04 1.08 1.13 1.24 1.37 1.48 1.64 1.81 1.89 1.81 1.82 1.95 1.93 1.84 1.76 1.71 1.67 1.74 1.65 1.47 1.39 1.40 1.48 1.53 1.60 1.53 1.41 1.30 1.15 1.05 0.98 0.93 0.86
0.39 0.44 0.50 0.50 0.50 0.56 0.58 0.59 0.69 0.88 1.01 1.04 1.04 1.09 1.13 1.25 1.38 1.52 1.60 1.53 1.34 1.35 1.30 1.20 1.10 1.08 1.10 1.17 1.16 1.09 1.05 1.10 1.23 1.34 1.50 1.48 1.37 1.29 1.24 1.20 1.13 1.06 0.98